Location: Unspecified
(44.0704°N, 88.6889°W)
Time: 23:14:33
(UTC+02:00)

Explorer 11/Cluster Stage 4 - All Passes

Search period start: 20 June 2019 00:00
Search period end: 30 June 2019 00:00
Orbit: 467 x 1260 km, 28.8° (Epoch: 19 June)

Date Brightness Start Highest point End Pass type
(mag) Time Alt. Az. Time Alt. Az. Time Alt. Az.
20 Jun - 00:18:08 10° SSW 00:20:27 13° S 00:22:58 10° SE daylight
20 Jun - 02:04:57 10° SW 02:08:04 15° S 02:11:34 10° SSE daylight
21 Jun - 00:07:43 10° SSW 00:09:46 13° S 00:11:58 10° SE daylight
21 Jun - 01:54:48 10° SW 01:57:22 14° S 02:00:12 10° SSE daylight
21 Jun - 23:57:24 10° SSW 23:59:07 12° S 00:00:57 10° SSE daylight
22 Jun - 01:44:53 10° SSW 01:46:41 12° S 01:48:37 10° SSE daylight
22 Jun - 23:47:13 10° SSW 23:48:29 11° S 23:49:48 10° SSE daylight
23 Jun - 23:37:27 10° S 23:37:51 10° S 23:38:15 10° S daylight
